Location: Hobi?a Gr?di?te
(45.4833°N, 22.7833°E)
Time: 11:04:38
(UTC+00:00)

Cosmos 1607 - Pass Details

Date: 28 January 2023
Orbit: 921 x 981 km, 65.0° (Epoch: 21 March)

Event Time Altitude Azimuth Distance (km) Brightness Sun altitude
Rises 16:17:38 0° 194° (SSW) 3,548 7.4 -8.7°
Reaches altitude 10° 16:20:14 10° 188° (S) 2,611 6.6 -9.2°
Maximum altitude 16:26:00 47° 117° (ESE) 1,207 4.2 -10.1°
Drops below altitude 10° 16:31:51 10° 45° (NE) 2,648 5.8 -11.1°
Enters shadow 16:32:00 - 45° (NE) 2,701 5.8 -11.2°
